This demonstration page uses our WeatherBlox Daily Observations layout. Learn more.

Left ArrowRight Arrow

Hourly Observations for July 31, 2018

Temp ( °F °C ) Dew Point ( °F °C ) Humidity (%) Winds ( mph kmh ) Pressure ( in mb ) Visibility ( mi km ) Precip ( " mm )
12:57 am 00:57 Clear 59 15 55 12.8 87 87 NW 6 9 30.19 1022 10 16 0.00 0.00
1:57 am 01:57 Clear 57 13.9 54 12.2 90 90 NW 7 11 30.19 1022 10 16 0.00 0.00
2:57 am 02:57 Clear 57 13.9 54 12.2 90 90 WNW 7 11 30.18 1022 10 16 0.00 0.00
3:57 am 03:57 Clear 55 12.8 53 11.7 93 93 WNW 7 11 30.18 1022 10 16 0.00 0.00
4:57 am 04:57 Clear 54 12.2 52 11.1 93 93 WNW 6 9 30.18 1022 10 16 0.00 0.00
5:57 am 05:57 Clear 55 12.8 52 11.1 90 90 NW 8 13 30.19 1022 10 16 0.00 0.00
6:57 am 06:57 Sunny 54 12.2 51 10.6 90 90 WNW 7 11 30.19 1023 10 16 0.00 0.00
7:57 am 07:57 Sunny 57 13.9 54 12.2 90 90 WNW 6 9 30.19 1022 10 16 0.00 0.00
8:57 am 08:57 Sunny 63 17.2 56 13.3 78 78 WNW 8 13 30.18 1022 10 16 0.00 0.00
9:57 am 09:57 Sunny 67 19.4 58 14.4 73 73 NW 6 9 30.17 1022 10 16 0.00 0.00
10:57 am 10:57 Sunny 71 21.7 58 14.4 63 63 VRB 5 7 30.16 1021 10 16 0.00 0.00
11:57 am 11:57 Sunny 73 22.8 57 13.9 57 57 WNW 6 9 30.16 1021 10 16 0.00 0.00
12:57 pm 12:57 Sunny 75 23.9 59 15 58 58 VRB 5 7 30.14 1021 10 16 0.00 0.00
1:57 pm 13:57 Sunny 76 24.4 56 13.3 50 50 SW 6 9 30.14 1021 10 16 0.00 0.00
2:57 pm 14:57 Sunny 77 25 55 12.8 47 47 SSE 8 13 30.12 1020 10 16 0.00 0.00
3:57 pm 15:57 Sunny 78 25.6 53 11.7 42 42 SSW 8 13 30.10 1019 10 16 0.00 0.00
4:57 pm 16:57 Sunny 78 25.6 53 11.7 42 42 SSW 8 13 30.10 1019 9 14 0.00 0.00
5:05 pm 17:05 Hazy 79 26 54 12 42 42 VRB 3 6 30.03 1017 5 8 0.00 0.00
5:57 pm 17:57 Sunny 78 25.6 54 12.2 43 43 S 7 11 30.09 1019 9 14 0.00 0.00
6:14 pm 18:14 Mostly Sunny 79 26 54 12 42 42 S 6 9 30.00 1016 8 13 0.00 0.00
7:57 pm 19:57 Sunny 75 23.9 60 15.6 60 60 S 7 11 30.06 1018 10 16 0.00 0.00
8:57 pm 20:57 Clear 70 21.1 61 16.1 73 73 S 6 9 30.06 1018 10 16 0.00 0.00
10:57 pm 22:57 Clear 64 17.8 59 15 84 84 S 7 11 30.06 1018 10 16 0.00 0.00
11:57 pm 23:57 Clear 64 17.8 58 14.4 81 81 S 7 11 30.05 1018 10 16 0.00 0.00

Powered by AerisWeather